Location: Ethel Rock
(53.4667°N, 4.5667°W)
Time: 04:37:48
(UTC+00:00)

Cosmos 2228 - Pass Details

Date: 24 October 2020
Orbit: 590 x 617 km, 82.5° (Epoch: 25 November)

Event Time Altitude Azimuth Distance (km) Brightness Sun altitude
Rises 05:23:46 0° 347° (NNW) 2,872 6.4 -15.3°
Reaches altitude 10° 05:26:00 10° 345° (NNW) 1,968 5.5 -15.0°
Maximum altitude 05:30:20 71° 262° (W) 649 2.9 -14.3°
Drops below altitude 10° 05:34:40 10° 179° (S) 1,968 5.7 -13.7°
Sets 05:36:53 0° 177° (S) 2,871 6.6 -13.3°
